GW3493 Weather Reports


Display with metric or nautical units.
time (UTC)temp
F
wind
direction
speed
MPH
gust
MPH
rain 1hr
in
rain 24hr
in
rain mn
in
humidity
%
barometer
mb
20260504033745 44 267 0.0 0.0 0.00 0.00 0.00 65 1011.4
20260504032643 44 267 1.0 1.0 0.00 0.00 0.00 64 1011.3
20260504031808 45 267 0.0 1.0 0.00 0.00 0.00 62 1011.5
20260504030706 45 267 0.0 0.0 0.00 0.00 0.00 62 1011.5
20260504025727 45 267 0.0 0.0 0.00 0.00 0.00 61 1011.6
20260504024644 46 267 0.0 0.0 0.00 0.00 0.00 59 1011.7
20260504023725 46 267 0.0 0.0 0.00 0.00 0.00 58 1011.8
20260504022643 47 267 0.0 0.0 0.00 0.00 0.00 55 1011.7
20260504021645 48 267 0.0 1.0 0.00 0.00 0.00 53 1011.7
20260504020806 48 267 0.0 1.0 0.00 0.00 0.00 52 1011.7
20260504015702 49 267 0.0 1.0 0.00 0.00 0.00 49 1011.7
20260504014724 49 0.0 0.0 0.00 0.00 0.00 50 1011.7
20260504013641 49 0.0 0.0 0.00 0.00 0.00 52 1011.6
20260504012702 50 267 0.0 0.0 0.00 0.00 0.00 50 1011.6
20260504011637 50 267 0.0 0.0 0.00 0.00 0.00 48 1011.5
20260504010742 50 267 0.0 0.0 0.00 0.00 0.00 48 1011.5
20260504005700 51 267 0.0 0.0 0.00 0.00 0.00 46 1011.5
20260504004722 52 267 0.0 1.0 0.00 0.00 0.00 44 1011.4
20260504003640 53 268 0.0 1.0 0.00 0.00 0.00 43 1011.4
20260504002701 53 268 0.0 0.0 0.00 0.00 0.00 42 1011.5
20260504001619 54 268 0.0 0.0 0.00 0.00 0.00 41 1011.5
20260504000744 54 267 0.0 1.0 0.00 0.00 0.00 40 1011.4
20260503235702 55 274 1.0 4.0 0.00 0.00 0.00 39 1011.4
20260503234723 56 284 1.0 3.0 0.00 0.00 0.00 38 1011.4
20260503233641 56 269 2.0 3.0 0.00 0.00 0.00 37 1011.6
20260503232703 57 266 2.0 4.0 0.00 0.00 0.00 36 1011.4
20260503231621 57 248 2.0 3.0 0.00 0.00 0.00 36 1011.6
20260503230746 57 287 3.0 9.0 0.00 0.00 0.00 36 1011.7
20260503225704 58 248 3.0 8.0 0.00 0.00 0.00 34 1011.6
20260503224726 58 267 2.0 8.0 0.00 0.00 0.00 35 1011.5
20260503223703 58 268 2.0 6.0 0.00 0.00 0.00 34 1011.6
20260503222705 58 266 2.0 6.0 0.00 0.00 0.00 35 1011.8
20260503221623 59 263 3.0 7.0 0.00 0.00 0.00 33 1011.8
20260503220808 59 245 4.0 8.0 0.00 0.00 0.00 33 1011.7
20260503215706 58 259 3.0 7.0 0.00 0.00 0.00 35 1011.7
20260503214727 58 244 3.0 6.0 0.00 0.00 0.00 34 1011.7
20260503213645 58 263 3.0 7.0 0.00 0.00 0.00 34 1011.6
20260503212706 59 260 3.0 7.0 0.00 0.00 0.00 34 1011.5
20260503211624 59 261 3.0 7.0 0.00 0.00 0.00 33 1011.6
20260503210749 59 287 3.0 4.0 0.00 0.00 0.00 34 1011.5
20260503205707 59 261 3.0 7.0 0.00 0.00 0.00 33 1011.8
20260503204748 59 247 4.0 6.0 0.00 0.00 0.00 34 1011.8
20260503203645 60 277 2.0 4.0 0.00 0.00 0.00 34 1012.2
20260503202707 58 278 3.0 9.0 0.00 0.00 0.00 35 1012.0
20260503201624 58 259 3.0 9.0 0.00 0.00 0.00 35 1012.4
20260503200749 58 261 4.0 10.0 0.00 0.00 0.00 35 1012.3
20260503195707 59 255 3.0 9.0 0.00 0.00 0.00 34 1012.6
20260503194728 59 247 3.0 9.0 0.00 0.00 0.00 34 1012.6
20260503193646 61 272 2.0 7.0 0.00 0.00 0.00 32 1012.8
20260503192708 58 250 2.0 7.0 0.00 0.00 0.00 35 1012.9
20260503191625 60 308 1.0 3.0 0.00 0.00 0.00 34 1013.0
20260503190750 59 224 3.0 7.0 0.00 0.00 0.00 34 1013.3
20260503185708 59 256 1.0 4.0 0.00 0.00 0.00 34 1013.3
20260503184730 58 263 2.0 4.0 0.00 0.00 0.00 34 1013.4
20260503183645 57 256 3.0 6.0 0.00 0.00 0.00 35 1013.6
20260503182706 58 251 3.0 6.0 0.00 0.00 0.00 34 1013.7
20260503181619 58 254 3.0 6.0 0.00 0.00 0.00 36 1013.7
20260503180744 57 309 2.0 7.0 0.00 0.00 0.00 36 1013.8
20260503175702 58 244 2.0 4.0 0.00 0.00 0.00 37 1013.9
20260503174743 57 250 2.0 10.0 0.00 0.00 0.00 35 1014.1
20260503173641 57 263 3.0 8.0 0.00 0.00 0.00 35 1014.3
20260503172703 57 282 4.0 8.0 0.00 0.00 0.00 35 1014.3
20260503171621 56 211 2.0 11.0 0.00 0.00 0.00 39 1014.4
20260503170746 57 260 3.0 7.0 0.00 0.00 0.00 36 1014.5
20260503150617 50 271 2.0 4.0 0.00 0.00 0.00 45 1015.3
20260503130620 43 264 2.0 6.0 0.00 0.00 0.00 63 1015.9
20260503110642 34 305 1.0 1.0 0.00 0.00 0.00 86 1014.9
20260503080625 35 35 0.0 1.0 0.00 0.00 0.00 84 1014.3
20260503072709 35 35 0.0 0.0 0.00 0.00 0.00 84 1013.9
20260503071710 35 35 0.0 0.0 0.00 0.00 0.00 83 1013.9
20260503070629 35 35 0.0 0.0 0.00 0.00 0.00 82 1013.9
20260503054714 35 35 0.0 0.0 0.00 0.00 0.00 85 1014.2
20260503053735 34 35 0.0 0.0 0.00 0.00 0.00 88 1014.3
20260503052713 33 0.0 0.0 0.00 0.00 0.00 89 1014.3
20260503051715 33 0.0 0.0 0.00 0.00 0.00 88 1014.5
20260503050633 34 0.0 0.0 0.00 0.00 0.00 88 1014.3
20260503045654 34 0.0 0.0 0.00 0.00 0.00 87 1014.4
20260503044716 34 0.0 0.0 0.00 0.00 0.00 86 1014.4
20260503043737 35 0.0 0.0 0.00 0.00 0.00 85 1014.3
20260503042655 35 0.0 0.0 0.00 0.00 0.00 85 1014.5
20260503041717 35 0.0 0.0 0.00 0.00 0.00 84 1014.4
20260503040634 36 0.0 0.0 0.00 0.00 0.00 82 1014.5
20260503035656 36 35 0.0 0.0 0.00 0.00 0.00 83 1014.5
20260503034717 35 0.0 0.0 0.00 0.00 0.00 84 1014.6